Location: Unspecified
(0.0000°N, 0.0000°E)
Time: 11:53:17
(UTC+00:00)

Envisat - Pass Details

Date: 12 June 2021
Orbit: 764 x 766 km, 98.1° (Epoch: 18 June)

Event Time Altitude Azimuth Distance (km) Brightness Sun altitude
Rises 04:16:10 0° 35° (NE) 3,214 7.2 -23.7°
Reaches altitude 10° 04:18:50 10° 48° (NE) 2,292 6.5 -23.1°
Maximum altitude 04:22:56 25° 102° (ESE) 1,502 5.0 -22.2°
Drops below altitude 10° 04:27:02 10° 157° (SSE) 2,300 5.4 -21.2°
Sets 04:29:42 0° 169° (S) 3,229 6.1 -20.6°
